{"data":{"norad_id":62772,"intl_designator":"2025-015Q","name":"STARLINK-33600","alt_names":[],"object_type":"PAYLOAD","status":"ACTIVE","operator":null,"country":"US","launch_date":"2025-01-21","launch_site_code":"AFWTR","launch_vehicle":null,"mission":null,"orbit_class":"UNKNOWN","rcs_meters":null,"size_class":null,"mass_kg":null,"dimensions":null,"purposes":["comms"],"wikipedia_slug":null,"has_3d_model":false,"image_url":null,"decayed_at":null,"tle_current":{"epoch":"2026-09-21T22:25:49.687104Z","epoch_age_seconds":47402,"freshness":"FRESH","line1":"1 62772U 25015Q   26264.93460286  .00011771  00000+0  39030-3 0  9999","line2":"2 62772  53.1595 129.7383 0001480 101.1204 258.9964 15.31714187 94542","mean_motion":15.31714187,"eccentricity":0.000148,"inclination_deg":53.1595,"raan_deg":129.7383,"arg_perigee_deg":101.1204,"mean_anomaly_deg":258.9964,"bstar":0.0003903,"rev_number":9454,"period_min":94.012317194787,"perigee_km":469.68407730698,"apogee_km":471.71133237962,"semimajor_km":6848.8347048433,"source":"CELESTRAK","updated_at":"2026-09-22T09:00:49.663284Z"}}}